EW5975 Weather Reports


Display with metric or nautical units.
time (UTC)temp
F
wind
direction
speed
MPH
gust
MPH
rain 1hr
in
rain 24hr
in
rain mn
in
humidity
%
barometer
mb
20260509182016 66 0.0 0.0 0.00 0.00 0.00 60 1012.1
20260509181016 66 0.0 0.0 0.00 0.00 0.00 58 1012.1
20260509180016 67 0.0 0.0 0.00 0.00 0.00 58 1012.2
20260509175036 67 0.0 0.0 0.00 0.00 0.00 57 1012.1
20260509174016 67 0.0 0.0 0.00 0.00 0.00 57 1012.2
20260509173016 68 0.0 2.0 0.00 0.00 0.00 56 1012.3
20260509172016 68 0.0 2.0 0.00 0.00 0.00 56 1012.3
20260509171016 69 0.0 2.0 0.00 0.00 0.00 55 1012.3
20260509170016 69 0.0 2.0 0.00 0.00 0.00 54 1012.3
20260509165016 69 0.0 2.0 0.00 0.00 0.00 56 1012.4
20260509164016 70 180 1.0 3.0 0.00 0.00 0.00 55 1012.6
20260509163037 70 225 1.0 3.0 0.00 0.00 0.00 54 1012.6
20260509162016 70 135 1.0 2.0 0.00 0.00 0.00 54 1012.7
20260509161016 70 135 1.0 3.0 0.00 0.00 0.00 54 1012.7
20260509160016 70 135 2.0 4.0 0.00 0.00 0.00 54 1012.8
20260509155016 69 203 2.0 4.0 0.00 0.00 0.00 57 1012.8
20260509154036 69 0.0 2.0 0.00 0.00 0.00 56 1012.9
20260509153015 69 203 2.0 6.0 0.00 0.00 0.00 57 1013.0
20260509152036 69 113 1.0 3.0 0.00 0.00 0.00 56 1013.2
20260509151015 69 135 1.0 3.0 0.00 0.00 0.00 56 1013.2
20260509150016 70 113 1.0 3.0 0.00 0.00 0.00 55 1013.3
20260509145016 70 113 1.0 3.0 0.00 0.00 0.00 57 1013.6
20260509144015 70 113 1.0 5.0 0.00 0.00 0.00 55 1013.6
20260509143036 71 225 2.0 4.0 0.00 0.00 0.00 55 1013.8
20260509142016 71 203 1.0 4.0 0.00 0.00 0.00 55 1014.0
20260509141017 71 135 1.0 4.0 0.00 0.00 0.00 53 1014.2
20260509140017 71 113 1.0 5.0 0.00 0.00 0.00 55 1014.4
20260509135058 72 113 1.0 7.0 0.00 0.00 0.00 56 1014.5
20260509134017 72 225 2.0 7.0 0.00 0.00 0.00 57 1014.5
20260509133017 72 113 1.0 5.0 0.00 0.00 0.00 56 1014.8
20260509132018 72 113 2.0 5.0 0.00 0.00 0.00 55 1014.9
20260509131017 71 203 3.0 8.0 0.00 0.00 0.00 55 1015.1
20260509130019 71 135 3.0 7.0 0.00 0.00 0.00 55 1015.2
20260509125057 71 113 3.0 7.0 0.00 0.00 0.00 56 1015.3
20260509124017 72 113 3.0 7.0 0.00 0.00 0.00 57 1015.4
20260509123017 72 180 2.0 5.0 0.00 0.00 0.00 55 1015.4
20260509122017 72 203 3.0 7.0 0.00 0.00 0.00 55 1015.3
20260509121017 72 113 2.0 7.0 0.00 0.00 0.00 53 1015.4
20260509120017 72 225 3.0 7.0 0.00 0.00 0.00 56 1015.4
20260509115057 72 113 3.0 8.0 0.00 0.00 0.00 57 1015.6
20260509114017 72 225 3.0 6.0 0.00 0.00 0.00 57 1015.7
20260509113017 72 113 2.0 5.0 0.00 0.00 0.00 55 1015.9
20260509112017 72 113 2.0 5.0 0.00 0.00 0.00 55 1016.0
20260509111038 71 135 2.0 5.0 0.00 0.00 0.00 56 1015.8
20260509110018 71 135 2.0 8.0 0.00 0.00 0.00 56 1015.8
20260509105037 72 225 3.0 8.0 0.00 0.00 0.00 54 1015.9
20260509104017 72 135 2.0 6.0 0.00 0.00 0.00 54 1015.9
20260509103018 72 113 3.0 7.0 0.00 0.00 0.00 53 1015.9
20260509102037 72 135 2.0 6.0 0.00 0.00 0.00 52 1016.0
20260509101018 72 135 3.0 7.0 0.00 0.00 0.00 52 1016.2
20260509100037 72 225 3.0 6.0 0.00 0.00 0.00 51 1016.2
20260509095017 72 203 3.0 6.0 0.00 0.00 0.00 51 1016.3
20260509094017 72 113 2.0 8.0 0.00 0.00 0.00 50 1016.3
20260509093016 72 113 2.0 5.0 0.00 0.00 0.00 50 1016.3
20260509092016 72 113 2.0 6.0 0.00 0.00 0.00 49 1016.4
20260509091016 72 113 2.0 7.0 0.00 0.00 0.00 49 1016.2
20260509090016 72 113 1.0 5.0 0.00 0.00 0.00 51 1016.1
20260509085017 72 135 1.0 3.0 0.00 0.00 0.00 52 1016.0
20260509084016 72 203 2.0 4.0 0.00 0.00 0.00 51 1015.9
20260509083018 71 113 2.0 6.0 0.00 0.00 0.00 53 1015.8
20260509082017 71 135 2.0 7.0 0.00 0.00 0.00 54 1015.8
20260509081016 71 113 2.0 7.0 0.00 0.00 0.00 55 1015.8
20260509080016 71 203 2.0 4.0 0.00 0.00 0.00 56 1015.9
20260509075017 70 135 2.0 5.0 0.00 0.00 0.00 55 1016.0
20260509074037 69 113 1.0 4.0 0.00 0.00 0.00 58 1015.9
20260509073016 68 0.0 2.0 0.00 0.00 0.00 60 1016.0
20260509072016 67 0.0 2.0 0.00 0.00 0.00 65 1016.0
20260509071016 65 0.0 0.0 0.00 0.00 0.00 66 1015.9
20260509070016 64 180 1.0 2.0 0.00 0.00 0.00 68 1016.1
20260509065017 62 0.0 2.0 0.00 0.00 0.00 73 1016.0
20260509064017 60 0.0 2.0 0.00 0.00 0.00 74 1016.1
20260509063016 58 0.0 0.0 0.00 0.00 0.00 79 1016.0
20260509062016 57 0.0 1.0 0.00 0.00 0.00 80 1016.0
20260509061016 56 0.0 0.0 0.00 0.00 0.00 83 1016.0
20260509060056 55 0.0 0.0 0.00 0.00 0.00 83 1015.9
20260509055016 54 0.0 0.0 0.00 0.00 0.00 84 1015.9
20260509054016 54 0.0 0.0 0.00 0.00 0.00 84 1015.9
20260509053016 53 0.0 0.0 0.00 0.00 0.00 84 1015.9
20260509052016 53 0.0 0.0 0.00 0.00 0.00 84 1015.9
20260509051016 53 0.0 0.0 0.00 0.00 0.00 84 1015.8
20260509050036 52 0.0 0.0 0.00 0.00 0.00 84 1015.7
20260509045018 52 0.0 0.0 0.00 0.00 0.00 84 1015.6
20260509044016 52 0.0 0.0 0.00 0.00 0.00 83 1015.6
20260509043016 52 0.0 0.0 0.00 0.00 0.00 83 1015.8
20260509042016 52 0.0 0.0 0.00 0.00 0.00 82 1015.7
20260509041016 52 0.0 0.0 0.00 0.00 0.00 82 1015.8
20260509040016 52 0.0 0.0 0.00 0.00 0.00 82 1015.8
20260509035016 53 0.0 0.0 0.00 0.00 0.00 82 1015.8
20260509034016 53 0.0 0.0 0.00 0.00 0.00 82 1015.9
20260509033036 53 0.0 0.0 0.00 0.00 0.00 81 1015.9
20260509032016 53 0.0 0.0 0.00 0.00 0.00 81 1015.9
20260509031036 53 0.0 0.0 0.00 0.00 0.00 81 1015.9
20260509030016 53 0.0 0.0 0.00 0.00 0.00 80 1015.9
20260509025016 53 0.0 0.0 0.00 0.00 0.00 80 1016.0
20260509024016 53 0.0 0.0 0.00 0.00 0.00 79 1015.9
20260509023015 53 0.0 0.0 0.00 0.00 0.00 79 1016.0
20260509022037 53 0.0 0.0 0.00 0.00 0.00 79 1016.0
20260509021016 53 0.0 0.0 0.00 0.00 0.00 79 1016.1
20260509020016 53 0.0 0.0 0.00 0.00 0.00 78 1016.0
20260509015015 53 0.0 0.0 0.00 0.00 0.00 78 1015.9
20260509014015 53 0.0 0.0 0.00 0.00 0.00 78 1016.0
20260509013015 53 0.0 0.0 0.00 0.00 0.00 78 1016.0
20260509012017 54 0.0 0.0 0.00 0.00 0.00 78 1016.0
20260509011035 54 0.0 0.0 0.00 0.00 0.00 78 1016.0
20260509010019 54 0.0 0.0 0.00 0.00 0.00 77 1016.1
20260509005018 54 0.0 0.0 0.00 0.00 0.00 77 1016.1
20260509004018 54 0.0 0.0 0.00 0.00 0.00 77 1016.2
20260509003017 54 0.0 0.0 0.00 0.00 0.00 77 1016.3
20260509002017 54 0.0 0.0 0.00 0.00 0.00 77 1016.3
20260509001017 55 0.0 0.0 0.00 0.00 0.00 76 1016.3
20260509000017 55 0.0 0.0 0.00 0.00 0.00 76 1016.3
20260508235019 55 0.0 0.0 0.00 0.00 0.00 76 1016.2
20260508234017 55 0.0 0.0 0.00 0.00 0.00 76 1016.3
20260508233017 55 0.0 0.0 0.00 0.00 0.00 76 1016.4
20260508232017 55 0.0 0.0 0.00 0.00 0.00 76 1016.4
20260508231037 56 0.0 0.0 0.00 0.00 0.00 76 1016.5
20260508230017 56 0.0 0.0 0.00 0.00 0.00 75 1016.6
20260508225017 56 0.0 0.0 0.00 0.00 0.00 75 1016.6
20260508224017 56 0.0 0.0 0.00 0.00 0.00 75 1016.6
20260508223017 56 0.0 0.0 0.00 0.00 0.00 75 1016.7
20260508222017 56 0.0 0.0 0.00 0.00 0.00 74 1016.7
20260508221017 57 0.0 0.0 0.00 0.00 0.00 74 1016.4
20260508220037 57 0.0 0.0 0.00 0.00 0.00 73 1016.3
20260508215017 57 0.0 0.0 0.00 0.00 0.00 73 1016.2
20260508214017 57 0.0 0.0 0.00 0.00 0.00 72 1016.1
20260508213018 58 0.0 0.0 0.00 0.00 0.00 72 1016.0
20260508212017 58 0.0 0.0 0.00 0.00 0.00 72 1016.0
20260508211017 58 0.0 0.0 0.00 0.00 0.00 72 1015.9
20260508210037 58 0.0 0.0 0.00 0.00 0.00 72 1015.8
20260508205017 59 0.0 0.0 0.00 0.00 0.00 71 1015.7
20260508204057 59 0.0 0.0 0.00 0.00 0.00 71 1015.8
20260508203017 59 0.0 0.0 0.00 0.00 0.00 71 1015.6
20260508202017 59 0.0 0.0 0.00 0.00 0.00 70 1015.5
20260508201037 59 0.0 0.0 0.00 0.00 0.00 69 1015.6
20260508200016 60 0.0 0.0 0.00 0.00 0.00 69 1015.5
20260508195037 60 0.0 0.0 0.00 0.00 0.00 68 1015.3
20260508194016 60 0.0 0.0 0.00 0.00 0.00 68 1015.2
20260508193038 60 0.0 0.0 0.00 0.00 0.00 67 1015.0
20260508192017 61 0.0 0.0 0.00 0.00 0.00 66 1014.9
20260508191017 61 0.0 0.0 0.00 0.00 0.00 66 1014.8
20260508190016 62 0.0 0.0 0.00 0.00 0.00 65 1014.6
20260508185017 63 0.0 0.0 0.00 0.00 0.00 64 1014.4
20260508184018 63 0.0 1.0 0.00 0.00 0.00 64 1014.4
20260508183016 64 0.0 0.0 0.00 0.00 0.00 63 1014.4